Date,TemperatureHighF,TemperatureAvgF,TemperatureLowF,DewpointHighF,DewpointAvgF,DewpointLowF,HumidityHigh,HumidityAvg,HumidityLow,PressureMaxIn,PressureMinIn,WindSpeedMaxMPH,WindSpeedAvgMPH,GustSpeedMaxMPH,PrecipitationSumIn
2013-2-1,23,19,17,13,9,6,80,65,56,30.10,29.59,8,2,18,0.00
2013-2-2,20,17,11,15,10,3,85,72,61,30.23,30.07,15,3,15,0.00
2013-2-3,26,17,6,14,10,3,88,76,56,30.08,29.82,4,1,9,0.00
2013-2-4,26,20,12,14,5,-1,86,55,32,29.94,29.77,18,3,19,0.00
2013-2-5,24,13,2,11,4,-2,83,66,44,30.08,29.94,5,1,10,0.00
2013-2-6,33,23,13,21,12,-2,84,63,43,30.37,29.92,11,3,15,0.00
2013-2-7,18,11,6,4,-1,-6,68,57,46,30.62,30.39,5,1,14,0.00
2013-2-8,26,20,12,21,14,3,88,79,67,30.47,29.93,12,1,22,0.14
2013-2-9,21,12,8,16,5,-2,92,73,53,30.38,29.93,16,4,26,0.04
2013-2-10,16,4,-1,6,-2,-6,84,75,61,30.55,30.40,7,0,7,0.00
2013-2-11,38,30,17,36,24,7,93,77,42,30.31,29.66,14,2,21,0.05
2013-2-12,38,35,32,30,27,22,80,73,66,29.89,29.64,10,3,17,0.01
2013-2-13,34,30,27,25,23,22,83,75,66,29.87,29.77,9,2,9,0.00
2013-2-14,36,31,27,26,24,21,85,74,56,29.97,29.76,7,1,9,0.00
2013-2-15,43,39,32,31,26,21,72,58,48,29.99,29.90,17,3,17,0.00
2013-2-16,32,28,22,24,17,5,80,63,47,30.02,29.95,11,2,13,0.00
2013-2-17,20,14,11,8,5,3,80,67,56,29.92,29.71,19,4,22,0.00
2013-2-18,26,15,7,9,2,-1,76,57,33,30.19,29.91,5,2,14,0.00
2013-2-19,46,31,15,32,17,4,90,59,38,30.19,29.64,11,3,20,0.13
2013-2-20,34,27,23,32,19,13,93,73,55,29.81,29.62,14,3,18,0.17
2013-2-21,24,18,12,16,10,5,81,72,58,30.35,29.81,12,2,13,0.00
2013-2-22,34,27,14,25,21,11,90,79,64,30.48,30.27,5,1,9,0.00
2013-2-23,36,33,29,32,29,23,94,84,65,30.26,29.91,11,2,15,0.06
2013-2-24,34,34,34,32,32,32,93,93,93,29.91,29.91,0,0,0,0.00
2013-2-25,36,33,30,31,30,28,93,89,81,30.27,29.98,5,0,5,0.01
2013-2-26,39,34,27,33,29,25,94,84,67,30.35,30.09,18,1,18,0.01
2013-2-27,37,35,33,34,30,26,93,82,67,30.11,29.63,24,3,24,0.24
2013-2-28,43,36,31,34,31,29,93,83,66,29.65,29.58,10,1,11,0.11